This is the latest recevied weather packets stored in our database for station/object GCEMA. If no packets are shown the sender has not sent any weather packets the latest 10 day(s).
| Time | Temp. | Humidity | Pressure | Rain* | Wind** | Luminosity | Snow |
|---|---|---|---|---|---|---|---|
| 1777728668 | 10.56° C | - | 1016.7 hPa | 0 mm | 0 m/s | - | - |
| 1777728485 | 11.11° C | - | 1016.7 hPa | 0 mm | 0 m/s | - | - |
| 1777728126 | 11.11° C | - | 1016.6 hPa | 0 mm | 0 m/s | - | - |
| 1777727946 | 10° C | - | 1016.7 hPa | 0 mm | 0 m/s | - | - |
| 1777727766 | 9.44° C | - | 1016.6 hPa | 0 mm | 0 m/s | - | - |
| 1777727584 | 9.44° C | - | 1016.6 hPa | 0 mm | 0 m/s | - | - |
| 1777727404 | 8.89° C | - | 1016.5 hPa | 0 mm | 0 m/s | - | - |
| 1777727225 | 9.44° C | - | 1016.6 hPa | 0 mm | 0 m/s | - | - |
| 1777727045 | 11.11° C | - | 1016.6 hPa | 0 mm | 0 m/s | - | - |
| 1777726866 | 11.11° C | - | 1016.6 hPa | 0 mm | 0 m/s | - | - |
| 1777726683 | 10° C | - | 1016.5 hPa | 0 mm | 0 m/s | - | - |
| 1777726504 | 10° C | - | 1016.4 hPa | 0 mm | 0 m/s | - | - |
| 1777726324 | 10.56° C | - | 1016.5 hPa | 0 mm | 0 m/s | - | - |
| 1777726145 | 11.67° C | - | 1016.5 hPa | 0 mm | 0 m/s | - | - |
| 1777725966 | 11.67° C | - | 1016.5 hPa | 0 mm | 0 m/s | - | - |
| 1777725784 | 11.11° C | - | 1016.5 hPa | 0 mm | 0 m/s | - | - |
| 1777725604 | 11.11° C | - | 1016.4 hPa | 0 mm | 0 m/s | - | - |
| 1777725424 | 10.56° C | - | 1016.4 hPa | 0 mm | 0 m/s | - | - |
| 1777725244 | 8.89° C | - | 1016.4 hPa | 0 mm | 0 m/s | - | - |
| 1777725064 | 8.89° C | - | 1016.3 hPa | 0 mm | 0 m/s | - | - |
| 1777724882 | 8.89° C | - | 1016.2 hPa | 0 mm | 0 m/s | - | - |
| 1777724702 | 8.89° C | - | 1016.3 hPa | 0 mm | 0 m/s | - | - |
| 1777724523 | 8.89° C | - | 1016.4 hPa | 0 mm | 0 m/s | - | - |
| 1777723981 | 10° C | - | 1016.2 hPa | 0 mm | 0 m/s | - | - |
| 1777723802 | 8.33° C | - | 1016.2 hPa | 0 mm | 0 m/s | - | - |
* Rain latest hour (hover to see other rain measurements)
** Current wind speed in m/s (hover to see current wind gust speed)